Weather History for Buffalo, NY

Change the Weather History Date:

Monday, December 27, 2010

  Actual Average Record
Temperature  
Mean Temperature 21 °F 27 °F  
Max Temperature 27 °F 33 °F 63 °F (2008)
Min Temperature 14 °F 21 °F -9 °F (1993)
Degree Days  
Heating Degree Days 44 38  
Month to date heating degree days 1065 929  
Since 1 July heating degree days 2339 2262  
Cooling Degree Days 0 0  
Month to date cooling degree days 0 0  
Year to date cooling degree days 744 544  
Moisture  
Dew Point 13 °F    
Average Humidity 78    
Maximum Humidity 88    
Minimum Humidity 67    
Precipitation  
Precipitation 0.02 in 0.12 in 1.21 in (2008)
Month to date precipitation 2.66 3.39  
Year to date precipitation 36.66 39.98  
Snow  
Snow 1.70 in 1.00 in 21.90 in (2001)
Month to date snowfall 32.0 23.2  
Since 1 July snowfall 33.6 32.0  
Snow Depth 5.00 in    
Sea Level Pressure  
Sea Level Pressure 29.93 in    
Wind  
Wind Speed 13 mph (NW)    
Max Wind Speed 25 mph    
Max Gust Speed 36 mph    
Visibility 6 miles    
Events Snow    
T = Trace of Precipitation, MM = Missing Value Source: NWS Daily Summary

Daily Weather History Graph

Daily Weather History Graph

Search for Another Location

Airport:

Trip Planner

Search our weather history database for the weather conditions in past years. The results will help you decide how hot, cold, wet, or windy it might be!

Date:

Astronomy

Dec. 27, 2010 Rise Set
Actual Time 7:45 AM EST 4:47 PM EST
Civil Twilight 7:12 AM EST 5:19 PM EST
Nautical Twilight 6:37 AM EST 5:55 PM EST
Astronomical Twilight 6:02 AM EST 6:29 PM EST
Moon No Moon Rise 11:22 AM EST (12/27)
Length of Visible Light 10h 06m
Length of Day
9h 01m
Waning Gibbous, 55% of the Moon is Illuminated
Dec 27
Waning Gibbous
Dec 27
Last Quarter
Jan 4
New
Jan 12
First Quarter
Jan 19
Full

Hourly Weather History & Observations

Time (EST) Temp. Windchill Dew Point Humidity Pressure Visibility Wind Dir Wind Speed Gust Speed Precip Events Conditions
12:54 AM 19.0 °F 4.5 °F 10.9 °F 71% 29.91 in 9.0 mi North 16.1 mph 20.7 mph 0.00 in Snow Light Snow
1:54 AM 18.0 °F 4.8 °F 10.9 °F 74% 29.91 in 9.0 mi North 12.7 mph - 0.00 in Snow Light Snow
2:54 AM 17.1 °F 1.5 °F 10.0 °F 74% 29.91 in 9.0 mi North 17.3 mph 25.3 mph 0.00 in Snow Light Snow
3:54 AM 16.0 °F 1.1 °F 9.0 °F 74% 29.90 in 9.0 mi North 15.0 mph 23.0 mph 0.00 in Snow Light Snow
4:54 AM 15.1 °F 2.5 °F 8.1 °F 74% 29.90 in 9.0 mi North 10.4 mph - 0.00 in Snow Light Snow
5:09 AM 15.8 °F 4.2 °F 8.6 °F 73% 29.87 in 9.0 mi North 9.2 mph - 0.00 in Snow Light Snow
5:29 AM 15.8 °F 4.2 °F 8.6 °F 73% 29.87 in 9.0 mi North 9.2 mph - 0.00 in Snow Light Snow
5:54 AM 16.0 °F 1.7 °F 10.9 °F 81% 29.92 in 3.0 mi NNW 13.8 mph - 0.00 in Snow Light Snow
6:02 AM 15.8 °F 0.9 °F 10.4 °F 79% 29.88 in 2.0 mi NNW 15.0 mph - 0.00 in Snow Light Snow
6:46 AM 15.8 °F 2.7 °F 10.4 °F 79% 29.89 in 3.0 mi NNW 11.5 mph 21.9 mph 0.00 in Snow Light Snow
6:54 AM 14.0 °F 0.5 °F 10.0 °F 84% 29.94 in 3.0 mi NNW 11.5 mph - 0.00 in Snow Light Snow
7:42 AM 14.0 °F 1.2 °F 10.4 °F 86% 29.90 in 3.0 mi NNW 10.4 mph - 0.00 in Snow Light Snow
7:54 AM 14.0 °F 0.5 °F 10.0 °F 84% 29.95 in 2.5 mi NNW 11.5 mph 20.7 mph 0.00 in Snow Light Snow
8:04 AM 14.0 °F -0.2 °F 10.4 °F 86% 29.91 in 1.8 mi NNW 12.7 mph - 0.00 in Snow Light Snow
8:29 AM 14.0 °F 1.2 °F 10.4 °F 86% 29.91 in 2.0 mi NNW 10.4 mph - 0.00 in Snow Light Snow
8:42 AM 15.8 °F 3.4 °F 10.4 °F 79% 29.91 in 2.0 mi NW 10.4 mph - 0.00 in Snow Light Snow
8:54 AM 15.1 °F 1.1 °F 10.9 °F 84% 29.96 in 2.0 mi NW 12.7 mph - 0.00 in Snow Light Snow
9:14 AM 15.8 °F 2.7 °F 10.4 °F 79% 29.92 in 1.5 mi NW 11.5 mph - 0.00 in Snow Light Snow
9:54 AM 16.0 °F 2.9 °F 10.9 °F 81% 29.97 in 1.2 mi NW 11.5 mph - 0.00 in Snow Light Snow
10:54 AM 17.1 °F 2.5 °F 10.9 °F 77% 29.96 in 1.5 mi NW 15.0 mph - 0.00 in Snow Light Snow
11:27 AM 17.6 °F 3.7 °F 12.2 °F 79% 29.91 in 1.2 mi NW 13.8 mph 20.7 mph 0.00 in Snow Light Snow
11:40 AM 17.6 °F 4.3 °F 12.2 °F 79% 29.90 in 1.5 mi NW 12.7 mph - 0.00 in Snow Light Snow
11:52 AM 17.6 °F 4.3 °F 12.2 °F 79% 29.89 in 2.5 mi NW 12.7 mph - 0.00 in Snow Light Snow
11:54 AM 18.0 °F 4.2 °F 12.0 °F 78% 29.94 in 2.5 mi NW 13.8 mph 19.6 mph 0.00 in Snow Light Snow
12:01 PM 19.4 °F 7.9 °F 12.2 °F 74% 29.89 in 4.0 mi NW 10.4 mph 19.6 mph 0.00 in Snow Light Snow
12:54 PM 21.9 °F 8.7 °F 12.9 °F 68% 29.91 in 10.0 mi NW 15.0 mph 21.9 mph 0.00 in   Overcast
1:54 PM 25.0 °F 11.3 °F 16.0 °F 69% 29.91 in 9.0 mi NNW 18.4 mph 25.3 mph 0.00 in   Overcast
2:54 PM 26.1 °F 12.0 °F 17.1 °F 69% 29.92 in 10.0 mi NW 20.7 mph 31.1 mph 0.00 in Snow Light Snow
3:54 PM 26.1 °F 12.7 °F 18.0 °F 71% 29.94 in 10.0 mi NW 18.4 mph 28.8 mph 0.00 in   Overcast
4:20 PM 26.6 °F 16.2 °F 17.6 °F 69% 29.91 in 10.0 mi NW 11.5 mph 25.3 mph 0.00 in   Overcast
4:54 PM 26.1 °F 14.5 °F 17.1 °F 69% 29.96 in 10.0 mi NW 13.8 mph 20.7 mph 0.00 in   Mostly Cloudy
5:54 PM 27.0 °F 16.7 °F 18.0 °F 69% 29.99 in 10.0 mi WNW 11.5 mph - N/A   Mostly Cloudy
6:54 PM 27.0 °F 17.3 °F 18.0 °F 69% 30.00 in 10.0 mi WNW 10.4 mph 19.6 mph N/A   Overcast
7:54 PM 27.0 °F 16.7 °F 19.0 °F 72% 30.01 in 10.0 mi WNW 11.5 mph - N/A   Overcast
8:54 PM 27.0 °F 19.5 °F 18.0 °F 69% 30.01 in 10.0 mi WNW 6.9 mph - N/A   Overcast
9:54 PM 27.0 °F 19.5 °F 18.0 °F 69% 30.01 in 10.0 mi West 6.9 mph - N/A   Overcast
10:54 PM 27.0 °F 17.3 °F 19.0 °F 72% 30.00 in 10.0 mi West 10.4 mph - N/A   Overcast
11:54 PM 27.0 °F 18.0 °F 21.0 °F 78% 29.99 in 10.0 mi West 9.2 mph - N/A   Overcast